STARLINK-6368, 57234

Orbit data source: Space-Track

STARLINK-6368, 57234 is a payload satellite owned by SpaceX/Seattle (US) in LEO that was launched on Fri, 07 Jul 2023 UTC via an FALCON 9 launch vehicle from the Air Force Western Test Range (AFWTR). Payload-class satellites include a variety of spacecraft equipped with specific instruments for various scientific and technological missions. These include communications satellites like Starlink; space stations such as the ISS; scientific satellites like the Hubble; Earth observation satellites from companies like Planet Labs, Umbra, and HawkEye 360; GPS; miniature CubeSats for education and research; and military/defense satellites.

Loading next visibility...
Identifier
57234, 2023-094S
Orbit
LEO
Country
Flag of USUS
Related business
Manufacturer
SpaceX/Seattle
Mission
Operational Commercial Communications
Bus & Motor
STARLINK, Unknown motor
Mass
305 kg wet, ~290 kg dry
Launch date (UTC)
2023-07-07 (3 years ago)
Launch vehicle
FALCON 9
Launch site
Air Force Western Test Range (AFWTR)
Object type
Payload
Rocket body
Debris
Shape & HBR
Box + 1 Pan, 10.1 m
Radar Cross Section
11.087 m², Large (>1 m²)

Expand to show TLE details & history
Last TLE update: 9 hours ago

TLE from 9 hours ago
0 STARLINK-6368
1 57234U 23094S   26167.77899309 -.00000041  00000-0  80275-5 0  9996
2 57234  42.9983 190.7922 0000762 340.1345  19.9477 15.27576314162279
Epoch: 2026-06-16T18:41Z
TLE epoch observation values (Epoch: 2026-06-16T18:41:45.002Z)
Latitude
-0.00003°
Longitude
5.30853°
Altitude
482.344 km
Speed
7.626 km/s
True Right ascension
12h 43m 10s
True Declination
0° 00' 00"
Sunlit
Object was in daylight at epoch
Visualization orbit readout
Latitude
Unknown
Longitude
Unknown
Altitude
Unknown
Speed
Unknown
Apparent Right ascension
Unknown
Apparent Declination
Unknown
Sunlit
N/A
Visualization observer readout
Local Sidereal Time
14:33:18
Azimuth
Unknown
Elevation
Unknown
Doppler factor
Unknown
Orbital elements
Apogee altitude
485.529 km
Perigee altitude
484.483 km
Semi-major axis
6,863.143 km
Eccentricity
0.00008
Inclination
42.9983°
RAAN
190.7922°
Arg. of periapsis
340.1345°
True anomaly
19.95068°
Mean anomaly
19.9477°
Eccentric anomaly
19.94919°
Mean motion
3.81732 °/min
Orbital period
94.31 mins
BSTAR
0.0000080275
Loading maneuver chart data...
Computing Atmospheric mass density...
Loading historical data...
Loading historical data...
Loading historical data...
Loading historical data...
Loading historical data...
Loading historical data...
Loading historical data...

Documentation

Showing up to 5 results
|